Weather History for Brno, Czech Republic

Change the Weather History Date:

Tuesday, March 4, 2014

  Actual Average Record
Temperature  
Mean Temperature 44 °F -  
Max Temperature 50 °F 48 °F - ()
Min Temperature 35 °F 33 °F - ()
Degree Days  
Heating Degree Days 22    
Moisture  
Dew Point 38 °F    
Average Humidity 79    
Maximum Humidity 93    
Minimum Humidity 55    
Precipitation  
Precipitation 0.02 in 0.03 in - ()
Sea Level Pressure  
Sea Level Pressure 29.61 in    
Wind  
Wind Speed 7 mph ()    
Max Wind Speed 16 mph    
Max Gust Speed -    
Visibility 7.4 miles    
Events Rain , Hail    
T = Trace of Precipitation, MM = Missing Value Source: Averaged Metar Reports

Daily Weather History Graph

Daily Weather History Graph

Search for Another Location

Airport:

Trip Planner

Search our weather history database for the weather conditions in past years. The results will help you decide how hot, cold, wet, or windy it might be!

Date:

Astronomy

Mar. 04, 2014 Rise Set
Actual Time 6:29 AM CET 5:40 PM CET
Civil Twilight 5:58 AM CET 6:12 PM CET
Nautical Twilight 5:21 AM CET 6:49 PM CET
Astronomical Twilight 4:44 AM CET 7:26 PM CET
Moon 7:44 AM CET (3/4) 9:52 PM CET (3/4)
Length of Visible Light 12h 14m
Length of Day
11h 10m
Waxing Crescent, 13% of the Moon is Illuminated
Mar 4
Waxing Crescent
Mar 8
First Quarter
Mar 16
Full
Mar 24
Last Quarter
Mar 30
New

Hourly Weather History & Observations

Time (CET) Temp. Windchill Dew Point Humidity Pressure Visibility Wind Dir Wind Speed Gust Speed Precip Events Conditions
12:00 AM 42 °F - 38 °F 83% 29.55 in 7 mi ESE 8.9 mph - - Rain Light Rain
12:00 AM 42.8 °F 38.6 °F 39.2 °F 87% 29.50 in 6.2 mi ESE 6.9 mph - N/A   Mostly Cloudy
12:30 AM 42.8 °F 38.0 °F 39.2 °F 87% 29.50 in 6.2 mi East 8.1 mph - N/A Rain Light Rain
1:00 AM 42 °F - 39 °F 86% 29.55 in 6 mi ESE 4.5 mph - - Rain Light Rain
1:00 AM 41.0 °F 36.4 °F 39.2 °F 93% 29.50 in 6.2 mi ESE 6.9 mph - N/A Rain Light Rain
1:30 AM 41.0 °F 37.1 °F 39.2 °F 93% 29.50 in 6.2 mi East 5.8 mph - N/A   Overcast
2:00 AM 41 °F - 39 °F 90% 29.54 in 6 mi East 6.7 mph - - Rain Light Rain
2:00 AM 41.0 °F 36.4 °F 39.2 °F 93% 29.50 in 6.2 mi East 6.9 mph - N/A   Scattered Clouds
2:30 AM 41.0 °F 36.4 °F 39.2 °F 93% 29.50 in 6.2 mi East 6.9 mph - N/A   Overcast
3:00 AM 41 °F - 39 °F 90% 29.54 in 6 mi ENE 8.9 mph - -   Overcast
3:00 AM 41.0 °F 35.2 °F 39.2 °F 93% 29.50 in 6.2 mi East 9.2 mph - N/A   Overcast
3:30 AM 41.0 °F 34.7 °F 39.2 °F 93% 29.50 in 6.2 mi ENE 10.4 mph - N/A   Overcast
4:00 AM 42 °F - 39 °F 86% 29.55 in 6 mi ENE 8.9 mph - -   Partly Cloudy
4:00 AM 41.0 °F 35.8 °F 39.2 °F 93% 29.50 in 6.2 mi ENE 8.1 mph - N/A   Overcast
4:30 AM 41.0 °F 37.1 °F 39.2 °F 93% 29.50 in 6.2 mi East 5.8 mph - N/A   Overcast
5:00 AM 40 °F - 38 °F 88% 29.56 in 6 mi East 6.7 mph - -   Mostly Cloudy
5:00 AM 41.0 °F 36.4 °F 37.4 °F 87% 29.53 in 6.2 mi East 6.9 mph - N/A   Mostly Cloudy
5:30 AM 39.2 °F 34.2 °F 37.4 °F 93% 29.53 in 6.2 mi ENE 6.9 mph - N/A   Mostly Cloudy
6:00 AM 41 °F - 38 °F 87% 29.56 in 6 mi ENE 6.7 mph - -   Mostly Cloudy
6:00 AM 41.0 °F 36.4 °F 39.2 °F 93% 29.53 in 6.2 mi ENE 6.9 mph - N/A   Mostly Cloudy
6:30 AM 41.0 °F 35.8 °F 39.2 °F 93% 29.53 in 6.2 mi ENE 8.1 mph - N/A   Mostly Cloudy
7:00 AM 42 °F - 39 °F 84% 29.57 in 6 mi ENE 4.5 mph - -   Partly Cloudy
7:00 AM 41.0 °F 37.1 °F 39.2 °F 93% 29.53 in 6.2 mi ENE 5.8 mph - N/A   Mostly Cloudy
7:30 AM 41.0 °F 35.8 °F 39.2 °F 93% 29.53 in 6.2 mi ENE 8.1 mph - N/A   Mostly Cloudy
8:00 AM 43 °F - 40 °F 83% 29.58 in 7 mi ENE 8.9 mph - -   Mostly Cloudy
8:00 AM 42.8 °F 38.0 °F 39.2 °F 87% 29.53 in 6.2 mi ENE 8.1 mph - N/A   Mostly Cloudy
8:30 AM 44.6 °F 40.7 °F 39.2 °F 81% 29.56 in 6.2 mi ENE 6.9 mph - N/A   Mostly Cloudy
9:00 AM 45 °F - 39 °F 73% 29.59 in 9 mi ENE 8.9 mph - -   Overcast
9:00 AM 44.6 °F 39.7 °F 39.2 °F 81% 29.56 in 6.2 mi ENE 9.2 mph - N/A   Mostly Cloudy
9:30 AM 46.4 °F 41.9 °F 39.2 °F 76% 29.56 in 6.2 mi ENE 9.2 mph - N/A   Scattered Clouds
10:00 AM 49 °F - 39 °F 58% 29.60 in 9 mi ENE 6.7 mph - -   Partly Cloudy
10:00 AM 48.2 °F - 39.2 °F 71% 29.56 in 6.2 mi ENE 6.9 mph - N/A   Scattered Clouds
10:30 AM 48.2 °F - 39.2 °F 71% 29.59 in 6.2 mi East 6.9 mph - N/A   Scattered Clouds
11:00 AM 48 °F - 38 °F 59% 29.61 in 12 mi East 2.2 mph - -   Mostly Cloudy
11:00 AM 48.2 °F - 39.2 °F 71% 29.59 in 6.2 mi East 4.6 mph - N/A   Mostly Cloudy
11:30 AM 48.2 °F - 39.2 °F 71% 29.59 in 6.2 mi SE 3.5 mph - N/A   Mostly Cloudy
12:00 PM 49 °F - 38 °F 56% 29.62 in 12 mi SSE 4.5 mph - -   Mostly Cloudy
12:00 PM 48.2 °F - 39.2 °F 71% 29.59 in 6.2 mi SSE 3.5 mph - N/A   Mostly Cloudy
12:30 PM 48.2 °F - 39.2 °F 71% 29.59 in 6.2 mi East 4.6 mph - N/A   Mostly Cloudy
1:00 PM 49 °F - 38 °F 56% 29.62 in 16 mi East 4.5 mph - -   Overcast
1:00 PM 50.0 °F - 39.2 °F 66% 29.59 in 6.2 mi East 3.5 mph - N/A   Mostly Cloudy
1:25 PM 48.2 °F - 37.4 °F 66% 29.59 in 6.2 mi East 10.4 mph - N/A Rain Light Rain Showers
1:30 PM 46.4 °F 41.9 °F 39.2 °F 76% 29.59 in 6.2 mi East 9.2 mph - N/A Hail Hail Showers
1:41 PM 44.6 °F 40.7 °F 37.4 °F 76% 29.62 in 6.2 mi ENE 6.9 mph - N/A Rain Light Rain Showers
2:00 PM 47 °F - 38 °F 63% 29.63 in 16 mi ENE 6.7 mph - - Hail Light Hail Showers
2:00 PM 46.4 °F 43.5 °F 39.2 °F 76% 29.62 in 6.2 mi ENE 5.8 mph - N/A   Scattered Clouds
2:30 PM 48.2 °F - 37.4 °F 66% 29.62 in 6.2 mi NE 3.5 mph - N/A   Partly Cloudy
3:00 PM 49 °F - 38 °F 55% 29.63 in 16 mi NE 2.2 mph - -   Partly Cloudy
3:00 PM 50.0 °F - 37.4 °F 62% 29.62 in 6.2 mi Variable 2.3 mph - N/A   Scattered Clouds
3:30 PM 48.2 °F - 41.0 °F 76% 29.62 in 6.2 mi Variable 2.3 mph - N/A   Partly Cloudy
4:00 PM 48 °F - 41 °F 70% 29.65 in 16 mi NW 4.5 mph - -   Partly Cloudy
4:00 PM 48.2 °F - 41.0 °F 76% 29.62 in 6.2 mi NNW 3.5 mph - N/A   Partly Cloudy
4:30 PM 48.2 °F - 41.0 °F 76% 29.62 in 6.2 mi NW 4.6 mph - N/A   Partly Cloudy
5:00 PM 46 °F - 41 °F 76% 29.66 in 12 mi WNW 6.7 mph - -   Partly Cloudy
5:00 PM 46.4 °F 42.9 °F 41.0 °F 81% 29.62 in - WNW 6.9 mph - N/A   Clear
5:30 PM 44.6 °F 40.2 °F 41.0 °F 87% 29.62 in - WNW 8.1 mph - N/A   Clear
6:00 PM 44 °F - 40 °F 81% 29.67 in 9 mi NW 6.7 mph - -   Scattered Clouds
6:00 PM 44.6 °F 40.7 °F 41.0 °F 87% 29.65 in - NNW 6.9 mph - N/A   Clear
6:21 PM 44.6 °F 38.8 °F 39.2 °F 81% 29.65 in - ENE 11.5 mph - N/A   Clear
6:30 PM 44.6 °F 40.2 °F 39.2 °F 81% 29.65 in - ENE 8.1 mph - N/A   Clear
7:00 PM 44 °F - 36 °F 65% 29.71 in 9 mi NE 11.2 mph - -   Partly Cloudy
7:00 PM 42.8 °F 36.6 °F 37.4 °F 81% 29.68 in - NE 11.5 mph - N/A   Clear
7:30 PM 42.8 °F 37.0 °F 35.6 °F 76% 29.68 in - NE 10.4 mph - N/A   Clear
8:00 PM 42 °F - 36 °F 70% 29.73 in 9 mi NE 11.2 mph - -   Scattered Clouds
8:00 PM 42.8 °F 37.0 °F 35.6 °F 76% 29.71 in - NE 10.4 mph - N/A   Clear
8:30 PM 41.0 °F 33.9 °F 35.6 °F 81% 29.71 in - NE 12.7 mph - N/A   Clear
9:00 PM 41 °F - 36 °F 74% 29.75 in 7 mi NE 15.7 mph - -   Partly Cloudy
9:00 PM 41.0 °F 33.9 °F 35.6 °F 81% 29.71 in - NE 12.7 mph - N/A   Clear
9:30 PM 41.0 °F 35.8 °F 35.6 °F 81% 29.74 in - NE 8.1 mph - N/A   Clear
10:00 PM 40 °F - 35 °F 76% 29.77 in 7 mi West 2.2 mph - -   Partly Cloudy
10:00 PM 41.0 °F - 35.6 °F 81% 29.74 in - Variable 2.3 mph - N/A   Clear
10:30 PM 39.2 °F - 35.6 °F 87% 29.74 in - Variable 2.3 mph - N/A   Clear
11:00 PM 37 °F - 33 °F 79% 29.79 in 7 mi NE 4.5 mph - -   Scattered Clouds
11:00 PM 37.4 °F 34.9 °F 33.8 °F 87% 29.74 in - NNE 3.5 mph - N/A   Clear
11:30 PM 35.6 °F - 32.0 °F 87% 29.74 in - North 2.3 mph - N/A   Clear